TIME,DELAY(SENSOR),PRES,T(CTD),SAL,OXYGEN,RAWTEMP,T(OPTODE),TCPHASE,FLUOR,BETA(BETA700),BETA(BETA412),BETA(BETA440),CDOM,C(CSC),ED(ED411.90),ED(ED443.80),ED(ED489.40),ED(ED554.70),LU(LU412.20),LU(LU443.80),LU(LU489.40),LU(LU555.00),COMP,TILTX,TILTX(TILTY),CHECK
1366647397,5804,496.6400146484375000,16.6422004699707030,36.2789001464843750,199.3352050781250000,200.3108062744140600,16.6389694213867200,33.2603912353515600,51,103,96,79,70,11269,2146956333,2147514779,2147267922,2147462372,2147081883,2146953828,2147656109,2147125275,2781,-2,8,10054
1366647524,5806,485.6499938964844000,16.8131008148193360,36.3053016662597660,197.8352966308593800,194.6707000732422000,16.8089809417724600,33.2695198059082000,51,105,97,80,68,11265,2146957961,2147515684,2147268589,2147461302,2147082322,2146952749,2147656923,2147121115,1789,-1,8,31863
1366647665,5809,474.3200073242187500,17.0842990875244140,36.3657989501953100,204.3448028564453000,184.1278076171875000,17.1268501281738280,32.7401695251464840,50,102,96,81,68,11270,2146961673,2147515611,2147267574,2147460132,2147081636,2146955648,2147655881,2147119826,1800,-1,8,27956
1366647804,5804,463.5700073242187500,17.3880004882812500,36.4343986511230500,219.2279968261718800,175.7648925781250000,17.3790798187255860,31.8064498901367200,50,100,95,80,67,11275,2146959844,2147514102,2147270573,2147457133,2147082578,2146957165,2147656438,2147125851,1403,-2,8,369
1366647965,5806,449.7699890136719000,17.6000995635986330,36.4749984741210940,224.1699066162109400,168.5390014648437500,17.5970993041992200,31.4508705139160160,50,100,96,80,68,11268,2146957229,2147516553,2147267355,2147456201,2147081216,2146958061,2147652608,2147129133,993,-2,8,10887
1366648068,5806,439.2000122070312500,17.6315994262695300,36.4798011779785160,224.8972930908203000,167.4342041015625000,17.6304302215576170,31.3990497589111330,50,101,95,80,68,11272,2146954331,2147516013,2147267995,2147451821,2147079094,2146955748,2147654262,2147122203,111,-1,8,1873
1366648183,5802,427.2000122070312500,17.7334995269775400,36.4989013671875000,225.8016967773437500,164.1894073486328000,17.7283706665039060,31.3089904785156250,50,100,95,80,67,11272,2146957412,2147513042,2147268699,2147454217,2147081170,2146959579,2147656320,2147124425,239,-1,8,48656
1366648288,5804,416.2799987792969000,17.8505992889404300,36.5231018066406250,228.4297027587890600,160.2785949707031200,17.8464298248291000,31.1237201690673830,50,99,95,79,67,11275,2146956955,2147514038,2147268882,2147453421,2147077458,2146956992,2147652918,2147126482,3447,-2,8,15266
1366648403,5805,404.3299865722656000,17.9347991943359380,36.5365982055664060,230.1136016845703000,157.4046936035156200,17.9332008361816400,31.0013999938964840,50,101,95,81,67,11269,2146956507,2147514980,2147266432,2147448749,2147080292,2146956187,2147650715,2147130038,3327,-1,8,1793
1366648518,5804,392.5700073242187500,18.0004997253417970,36.5463981628418000,230.4169006347656200,155.2684020996093800,17.9977092742919920,30.9577598571777340,50,101,96,80,67,11269,2146954660,2147515035,2147267145,2147452827,2147073737,2146957092,2147651739,2147127899,2473,-1,8,28553
1366648638,5807,381.7799987792969000,18.0485000610351560,36.5536994934082000,230.1174011230468800,153.7599945068359400,18.0432605743408200,30.9521598815917970,51,102,96,80,67,11268,2146959442,2147514834,2147262400,2147449344,2147081600,2146960155,2147653257,2147126546,2061,-1,8,62950
1366648789,5806,370.3999938964844000,18.0998992919921880,36.5596008300781250,229.5375061035156200,151.9779052734375000,18.0970897674560550,30.9569492340087900,50,101,96,80,67,11267,2146959762,2147516626,2147267739,2147449819,2147076873,2146959058,2147649938,2147128576,1627,-1,8,16963
1366648947,5804,356.9200134277344000,18.1457004547119140,36.5675010681152340,229.5164947509765600,150.4411010742187500,18.1435108184814450,30.9372196197509770,50,100,95,79,67,11267,2146957915,2147513545,2147266020,2147451611,2147079378,2146961106,2147648612,2147127990,1187,-1,8,62650
1366649062,5805,345.7099914550781000,18.1730003356933600,36.5699996948242200,229.1430969238281200,149.5198974609375000,18.1713409423828120,30.9434700012207030,50,101,95,80,66,11268,2146959222,2147513499,2147264923,2147449069,2147079936,2146959643,2147654848,2147128237,806,-1,8,56218
1366649177,5806,334.6000061035156000,18.2779006958007800,36.5797996520996100,228.4907989501953000,146.1889038085937500,18.2719898223876950,30.9312000274658200,50,103,94,80,67,11270,2146958400,2147515200,2147266267,2147449554,2147078473,2146961280,2147648128,2147129334,228,-1,8,23057
1366649282,5803,324.3599853515625000,18.3386001586914060,36.5867004394531250,227.1215057373047000,144.1132965087890600,18.3347091674804700,30.9718208312988280,50,101,95,81,68,11267,2146956891,2147514112,2147265371,2147448338,2147077686,2146959917,2147652964,2147126848,3348,-1,8,38412
1366649397,5806,313.0100097656250000,18.4116001129150400,36.5912017822265600,225.6670074462890600,141.5455017089843800,18.4123191833496100,31.0103092193603500,51,101,96,80,67,11266,2146956827,2147512246,2147266806,2147451446,2147077458,2146961152,2147649206,2147126683,2981,-1,8,21271
1366649512,5806,301.9100036621094000,18.4780998229980470,36.5966987609863300,224.0968933105468800,139.5137939453125000,18.4737396240234380,31.0625190734863280,50,104,96,79,66,11266,2146955803,2147517485,2147265088,2147449435,2147076662,2146966454,2147645860,2147128182,1769,-1,8,23360
1366649629,5802,290.8599853515625000,18.5930004119873050,36.6060981750488300,222.7991027832031200,135.2913970947265600,18.6014194488525400,31.0719699859619140,50,103,95,80,67,11261,2146955876,2147517513,2147266139,2147448310,2147079232,2146963931,2147650697,2147128932,1427,-1,8,39994
1366649744,5806,279.8599853515625000,18.6930999755859380,36.6111984252929700,220.9176940917968800,132.3067932128906200,18.6916904449462900,31.1284599304199220,51,104,96,80,68,11259,2146957504,2147513920,2147268086,2147447597,2147070610,2146964480,2147652480,2147127716,1262,-2,8,58701
1366649859,5806,268.5799865722656000,18.9106998443603500,36.6151008605957000,220.1356048583984400,124.9602966308593800,18.9139804840087900,31.0705108642578120,50,103,97,82,67,11257,2146956205,2147511707,2147264182,2147446811,2147072009,2146959085,2147651254,2147127186,776,-1,8,60051
1366649964,5807,258.4100036621094000,19.1399002075195300,36.6232986450195300,220.8385925292968800,117.4833984375000000,19.1403808593750000,30.9345207214355470,51,106,97,81,66,11257,2146958902,2147513664,2147262930,2147446793,2147077257,2146969088,2147649773,2147130624,1786,-2,8,23166
1366650091,5808,246.6100006103515600,19.2404994964599600,36.6180000305175800,224.1634979248047000,114.2334976196289000,19.2388191223144530,30.7218303680419920,51,108,96,82,67,11252,2146955428,2147508891,2147265645,2147443894,2147072694,2146969929,2147657417,2147128283,867,-1,8,17381
1366650220,5808,234.9100036621093800,19.3106002807617200,36.6188011169433600,226.3887939453125000,111.9984970092773400,19.3065490722656250,30.5805797576904300,51,106,95,81,66,11254,2146955629,2147511286,2147265956,2147441746,2147073325,2146966098,2147660059,2147127725,1738,-1,8,29608
1366650347,5804,224.1799926757812500,19.3600006103515620,36.6222000122070300,227.0151977539062500,110.3243026733398400,19.3572902679443360,30.5275306701660160,51,107,97,81,68,11252,2146956781,2147512493,2147264155,2147445330,2147081609,2146965613,2147660790,2147130816,2089,-1,9,3306
1366650486,5803,213.0700073242187500,19.5244998931884770,36.6192016601562500,230.0272064208984400,104.8714981079101600,19.5226097106933600,30.3073101043701170,51,109,98,82,66,11246,2146956416,2147515465,2147260928,2147445092,2147080283,2146976000,2147669540,2147128411,1925,-2,9,44956
1366650627,5805,202.5000000000000000,19.7205009460449220,36.6230010986328100,239.4328002929687500,98.6190872192382800,19.7122802734375000,29.7783699035644530,53,113,98,84,65,11241,2146957504,2147511296,2147264731,2147441837,2147083062,2146981888,2147678464,2147128877,1262,-2,9,47745
1366650694,5804,197.7100067138672000,19.7551002502441400,36.6227989196777340,248.7082977294922000,97.1899108886718800,19.7556495666503900,29.3390407562255860,55,117,99,85,63,11238,2146957028,2147511268,2147264960,2147442898,2147082605,2146986048,2147682230,2147129051,1116,-1,8,12501
1366650749,5805,193.8600006103515600,19.7875003814697270,36.6255989074707000,250.6938018798828000,96.2254180908203100,19.7849292755126950,29.2389907836914060,56,114,100,81,63,11234,2146955977,2147512841,2147265353,2147442102,2147081600,2146992923,2147687716,2147130834,719,-2,9,50742
1366650804,5806,189.9900054931640600,19.8596000671386720,36.6302986145019500,251.1399993896484400,94.0869369506836000,19.8498497009277340,29.1919994354248050,56,116,101,84,64,11237,2146955264,2147514889,2147262738,2147440128,2147085110,2146992457,2147692105,2147128109,517,-2,8,31039
1366650879,5805,185.0299987792968800,19.8661003112792970,36.6251983642578100,246.7362060546875000,93.1701507568359400,19.8776798248291000,29.3749809265136720,53,112,101,85,64,11235,2146957165,2147511131,2147264493,2147439085,2147084187,2147000045,2147697408,2147131465,525,-1,8,46489
1366650946,5806,181.0099945068359400,20.0027999877929700,36.6371994018554700,246.3686981201172000,89.4357910156250000,19.9911003112792970,29.3436298370361330,62,117,100,85,64,11225,2146955474,2147514240,2147261156,2147441810,2147085440,2147009097,2147702656,2147129618,965,-2,9,23065
1366651013,5805,177.1999969482422000,20.0314006805419920,36.6417999267578100,246.8298950195312500,88.2127380371093800,20.0282592773437500,29.3071994781494140,65,117,100,86,64,11221,2146955282,2147514633,2147261622,2147439670,2147084717,2147007323,2147709348,2147130358,702,-1,8,21590
1366651080,5805,173.2200012207031200,20.1625003814697270,36.6451988220214840,247.3580932617187500,84.1156768798828100,20.1527595520019530,29.2311305999755860,76,126,100,85,63,11209,2146956827,2147512813,2147264137,2147440219,2147086180,2147014262,2147718235,2147130806,801,-1,9,12053
1366651147,5804,169.1199951171875000,20.2292003631591800,36.6469001770019500,250.2290039062500000,81.8132629394531200,20.2227592468261720,29.0751399993896500,83,124,102,88,63,11202,2146954852,2147513865,2147267629,2147439515,2147093504,2147019803,2147726427,2147129490,1059,-2,9,1181
1366651226,5805,164.6600036621093800,20.2812995910644530,36.6455001831054700,252.8222045898437500,80.2175674438476600,20.2712802886962900,28.9418296813964840,92,124,101,86,64,11195,2146955657,2147515849,2147264484,2147439533,2147087881,2147022235,2147735524,2147132406,1110,-2,8,60386
1366651317,5807,160.6399993896484400,20.2891006469726560,36.6469993591308600,254.2938995361328000,79.8040237426757800,20.2838592529296880,28.8729000091552730,89,135,100,87,64,11193,2146955922,2147513728,2147263890,2147439396,2147096329,2147028306,2147745216,2147133238,829,-1,9,17887
1366651408,5806,156.5899963378906200,20.2959003448486330,36.6464004516601560,254.9459075927734400,79.5654220581054700,20.2911090850830080,28.8419990539550780,91,126,103,87,63,11189,2146958317,2147517613,2147262390,2147438582,2147095899,2147045275,2147754925,2147133942,377,-1,8,42754
1366651499,5805,152.7100067138672000,20.3069000244140620,36.6416015625000000,255.4963073730468800,79.2338867187500000,20.3012008666992200,28.8142700195312500,90,129,102,86,62,11194,2146959835,2147515300,2147266093,2147441024,2147090112,2147048054,2147769664,2147136740,3444,-2,9,39954
1366651604,5807,148.8999938964843800,20.3640995025634770,36.6377983093261700,257.4928894042969000,77.5522537231445300,20.3523502349853500,28.7079696655273440,91,135,103,86,63,11186,2146956297,2147515574,2147265097,2147438262,2147098148,2147053796,2147779840,2147135634,2669,-1,9,55121
1366651743,5802,145.5200042724609400,20.3735008239746100,36.6380996704101560,259.1164855957031000,77.1140136718750000,20.3656806945800780,28.6339397430419920,90,132,102,86,63,11175,2146958217,2147517001,2147266240,2147434788,2147107748,2147071286,2147800704,2147138176,2034,-2,9,60284
1366651914,5803,142.0299987792968800,20.4428005218505860,36.6417007446289060,260.5726013183594000,74.6109619140625000,20.4418392181396500,28.5415306091308600,84,131,103,88,63,11175,2146958701,2147516352,2147271122,2147434998,2147111561,2147099145,2147837046,2147141586,1495,-1,9,42090
1366652041,5806,137.9700012207031200,20.5594005584716800,36.6539993286132800,259.2037048339844000,71.1076202392578100,20.5484790802001950,28.5544700622558600,75,123,101,86,62,11190,2146956882,2147519753,2147272073,2147437357,2147119981,2147119908,2147874578,2147143360,2228,-2,9,34454
1366652156,5801,133.8899993896484400,20.6089992523193360,36.6552009582519500,257.9982910156250000,69.2761917114257800,20.6042499542236330,28.5821800231933600,77,127,101,85,63,11185,2146958235,2147517952,2147270537,2147436114,2147124132,2147138203,2147883958,2147143040,2551,-1,9,53315
1366652247,5808,129.5599975585937500,20.6606006622314450,36.6655006408691400,254.0753021240234400,67.6880722045898400,20.6526203155517580,28.7288208007812500,75,121,101,84,63,11196,2146958747,2147517238,2147269284,2147437440,2147126381,2147135844,2147886838,2147142710,2767,-1,9,63574
1366652326,5803,125.1200027465820300,20.7115001678466800,36.6687011718750000,250.0117034912109400,65.5784072875976600,20.7168807983398440,28.8782005310058600,73,119,102,86,64,11204,2146960393,2147518226,2147267035,2147436379,2147135725,2147155913,2147914550,2147143972,2981,-2,9,5291
1366652393,5806,121.5599975585937500,20.7495994567871100,36.6819000244140600,245.6161041259765600,64.7644882202148400,20.7416896820068360,29.0618801116943360,72,120,101,85,65,11214,2146961691,2147519405,2147272265,2147437129,2147145444,2147189750,2147954633,2147143030,2452,-2,9,17410
1366652472,5804,116.9400024414062500,20.9090995788574220,36.6841011047363300,239.5388031005859400,59.9033699035644500,20.8898601531982420,29.2750396728515620,71,116,97,84,66,11216,2146960000,2147517860,2147276214,2147433362,2147172763,2147260406,2148049197,2147154368,2543,-2,8,18085
1366652541,5807,112.6100006103515600,20.9183998107910160,36.6856002807617200,237.4553985595703000,58.9622802734375000,20.9185600280761720,29.3593406677246100,71,115,99,84,65,11220,2146961993,2147523209,2147280338,2147435136,2147199835,2147329883,2148137536,2147161499,2057,-1,9,49115
1366652596,5803,108.9400024414062500,21.0606994628906250,36.6904983520507800,236.0106964111328000,54.8059082031250000,21.0453491210937500,29.3732299804687500,73,119,101,84,66,11213,2146962038,2147525641,2147278299,2147435190,2147223012,2147379593,2148208402,2147166994,1607,-2,8,16056
1366652663,5805,104.9000015258789000,21.0800991058349600,36.6962013244628900,234.0041046142578000,53.9542198181152340,21.0713405609130860,29.4566593170166000,71,116,99,83,64,11216,2146961517,2147527734,2147284553,2147433920,2147247734,2147439597,2148284854,2147173714,1275,-2,9,8512
1366652730,5807,101.2399978637695300,21.0844001770019530,36.6963005065918000,233.5063018798828000,53.6982192993164060,21.0791492462158200,29.4766807556152340,73,115,100,85,65,11215,2146961700,2147531456,2147287606,2147429952,2147288603,2147502235,2148366235,2147179227,898,-1,9,53816
1366652785,5805,98.2099990844726600,21.0956993103027340,36.6958007812500000,233.3728027343750000,53.2888908386230500,21.0916500091552730,29.4776802062988280,73,121,98,85,66,11214,2146963245,2147530432,2147290733,2147437504,2147319360,2147574921,2148444160,2147185261,679,-1,9,48852
1366652842,5805,95.1100006103515600,21.0998992919921880,36.6952018737793000,233.4915008544922000,53.0646591186523440,21.0984897613525400,29.4691200256347660,75,118,99,84,65,11207,2146965385,2147530020,2147296914,2147433792,2147358427,2147641673,2148521920,2147192969,846,-1,9,2135
1366652897,5802,92.4300003051757800,21.1270008087158200,36.6959991455078100,233.3240051269531200,52.2976493835449200,21.1219005584716800,29.4673900604248050,77,119,98,84,64,11210,2146966720,2147534473,2147298907,2147432438,2147400402,2147703734,2148599689,2147200402,1028,-1,9,63700
1366652952,5802,90.0100021362304700,21.1944007873535160,36.6906013488769500,232.9837951660156200,50.3086700439453100,21.1826190948486330,29.4580001831054700,81,119,99,84,65,11209,2146969673,2147538413,2147301101,2147434331,2147448585,2147779602,2148685238,2147208521,1106,-1,9,39463
1366653007,5804,87.8600006103515600,21.2283992767334000,36.6845016479492200,233.7754974365234400,49.1291809082031250,21.2186393737792970,29.4056491851806640,86,122,99,85,65,11197,2146971757,2147538788,2147305545,2147432813,2147491053,2147848484,2148757046,2147214637,1195,-2,9,58536
1366653062,5805,85.8000030517578100,21.2236003875732420,36.6851005554199200,234.6212005615234400,49.1208190917968750,21.2189006805419920,29.3656101226806640,86,120,99,85,64,11195,2146975707,2147540169,2147308123,2147435529,2147542089,2147922386,2148842742,2147222921,1162,-2,9,47549
1366653117,5806,83.5199966430664000,21.2607994079589840,36.6803016662597660,235.2881927490234400,47.8601989746093750,21.2574005126953120,29.3183708190917970,88,122,101,85,64,11195,2146976045,2147544073,2147310025,2147433572,2147609170,2148014720,2148949101,2147235794,647,-2,9,25367
1366653174,5805,80.9100036621093800,21.3159999847412100,36.6715011596679700,236.1304931640625000,46.2373695373535160,21.3069801330566400,29.2583694458007800,93,123,100,86,64,11189,2146977654,2147549403,2147318116,2147432676,2147686354,2148125787,2149075483,2147249261,823,-2,9,21985
1366653229,5806,78.4899978637695300,21.3722000122070300,36.6647987365722660,237.1757965087890600,44.3173294067382800,21.3656501770019530,29.1854591369628900,99,125,100,84,65,11179,2146980077,2147552521,2147325147,2147432009,2147767268,2148241069,2149208448,2147264758,950,-2,9,9461
1366653284,5804,76.4499969482421900,21.4113998413085940,36.6613998413085940,238.4152069091797000,43.0956497192382800,21.4029903411865230,29.1127300262451170,99,128,102,86,63,11172,2146983085,2147556105,2147327734,2147436608,2147854628,2148356196,2149340059,2147277302,954,-2,9,18139
1366653339,5808,74.6600036621093800,21.4615001678466800,36.6483001708984400,239.5260925292968800,41.5468711853027340,21.4503307342529300,29.0420799255371100,100,124,99,87,63,11170,2146987209,2147560685,2147335451,2147435081,2147948416,2148488173,2149476544,2147295268,884,-2,9,21558
1366653394,5805,72.9700012207031200,21.5468006134033200,36.6082000732421900,244.6788940429687500,38.6054916381835940,21.5402908325195300,28.7725200653076170,102,127,102,86,63,11146,2146989796,2147566966,2147337499,2147437741,2148026230,2148587090,2149582253,2147309376,504,-2,9,14946
1366653496,5805,70.8799972534179700,21.7893009185791000,36.6147994995117200,248.6392059326172000,30.8682804107666000,21.7770996093750000,28.5008106231689450,119,133,104,87,62,11131,2146999378,2147568210,2147345636,2147437129,2148145883,2148740672,2149753115,2147330468,2558,-1,9,12848
1366653563,5804,68.9199981689453100,21.9109001159667970,36.6087989807128900,247.8861999511718800,28.8678894042968750,21.8383693695068360,28.5086803436279300,121,134,105,88,61,11132,2147002788,2147573952,2147357952,2147437613,2148330176,2148983798,2150014939,2147366646,2246,-1,9,16161
1366653630,5805,67.2099990844726600,22.0720005035400400,36.5589981079101560,247.5505981445312500,22.1755294799804700,22.0435104370117200,28.4395008087158200,125,137,103,88,62,11118,2147008822,2147580781,2147367744,2147438656,2148479990,2149176356,2150232310,2147391533,2470,-2,9,60386
1366653841,5803,65.2399978637695300,22.2005004882812500,36.5195999145507800,250.3359069824218800,17.2599201202392580,22.1943397521972660,28.2574996948242200,124,140,106,91,60,11115,2147019373,2147594450,2147382720,2147440566,2148751387,2149506102,2150594240,2147438857,2573,-2,9,27693
1366653920,5805,63.4099998474121100,22.3509998321533200,36.4911994934082000,251.3132019042968800,12.7299299240112300,22.3334503173828120,28.1591491699218750,119,140,104,90,62,11113,2147027520,2147603181,2147396827,2147439616,2148969069,2149768000,2150870482,2147477778,2411,-2,9,63563
1366654035,5803,61.5900001525878900,22.4897003173828120,36.4701995849609400,251.4841003417968800,8.2996578216552730,22.4696006774902340,28.0969200134277340,122,141,104,89,62,11103,2147034505,2147608923,2147405814,2147439488,2149210395,2150041691,2151161024,2147525888,2305,-2,9,4875
1366654162,5808,59.2099990844726560,22.5981006622314450,36.4598999023437500,250.7380065917968800,4.3724389076232910,22.5903797149658200,28.0801296234130860,128,146,105,90,62,11104,2147049408,2147625691,2147431094,2147445074,2149557485,2150425718,2151593892,2147593956,1865,-1,9,2029
1366654253,5809,57.3199996948242200,22.6672992706298830,36.4514007568359400,250.1858978271484400,1.7920910120010376,22.6697902679443360,28.0717792510986330,132,142,105,89,62,11102,2147054555,2147634953,2147444352,2147444086,2149831259,2150743122,2151949696,2147651684,1762,-1,9,10336
1366654356,5804,55.5999984741210940,22.7709999084472660,36.4355010986328100,250.1286010742187500,-1.0426820516586304,22.7570705413818360,28.0392398834228500,132,147,104,88,62,11094,2147062272,2147646528,2147458258,2147444736,2150089846,2151032905,2152281929,2147718756,1977,-2,9,39782
1366654534,5807,51.3100013732910160,22.8962001800537100,36.4146003723144500,249.4098968505859400,-5.3875827789306640,22.8909397125244140,28.0163402557373050,133,140,104,89,62,11065,2147094820,2147678482,2147506633,2147453997,2150976374,2152024393,2153387062,2147924361,2600,-1,8,53436
1366654579,5808,49.7099990844726560,22.9543991088867200,36.4098014831543000,249.3710937500000000,-7.2809720039367680,22.9493103027343750,27.9946899414062500,131,143,105,88,62,11074,2147109257,2147694034,2147525330,2147460224,2151372800,2152456201,2153828050,2148025673,2486,-1,9,34631
1366654636,5804,47.7500000000000000,22.9780006408691400,36.4040985107421900,249.3258972167968800,-8.0168094635009770,22.9720001220703120,27.9873409271240230,134,141,105,89,62,11063,2147128941,2147709760,2147549312,2147463734,2151843849,2152982281,2154376064,2148142857,2414,-2,8,41722
1366654693,5803,45.6300010681152340,22.9733009338378900,36.4039001464843750,249.6147003173828000,-7.9599652290344240,22.9702396392822270,27.9757499694824220,131,139,104,90,62,11069,2147148553,2147729764,2147577453,2147466870,2152375277,2153543890,2154961874,2148280676,2372,-2,9,2076
1366654749,5805,43.2799987792968750,23.0300006866455080,36.3921012878418000,249.9689025878906200,-9.7945423126220700,23.0268306732177730,27.9379692077636720,125,144,105,88,63,11065,2147170176,2147751890,2147616237,2147480265,2153210706,2154439021,2155825161,2148504786,2361,-2,8,45994
1366654782,5805,41.5900001525878900,23.0699005126953120,36.3871002197265600,250.1071929931640600,-11.0785703659057620,23.0664405822753900,27.9161701202392580,126,142,105,89,61,11063,2147192978,2147777709,2147643876,2147486418,2153708580,2154984064,2156383542,2148628041,2086,-2,9,4762
1366654827,5805,39.3300018310546900,23.0916996002197270,36.3790016174316400,250.8961029052734400,-11.7082901000976560,23.0858707427978500,27.8747901916503900,121,143,104,89,60,11061,2147227126,2147807286,2147683227,2147495360,2154498395,2155834688,2157229988,2148845970,2143,-1,8,3810
1366654860,5805,37.7900009155273440,23.0935001373291000,36.3759002685546900,251.1889953613281200,-11.8670196533203120,23.0907707214355470,27.8601398468017580,122,140,104,90,61,11062,2147246244,2147826267,2147708032,2147506221,2155180699,2156539209,2157886354,2149036763,2655,-1,9,51162
1366654905,5806,35.6399993896484400,23.1261005401611330,36.3672981262207000,250.7507019042968800,-13.0663700103759770,23.1277904510498050,27.8640804290771500,123,144,105,91,61,11059,2147279204,2147859172,2147744292,2147516544,2156233426,2157591698,2158830729,2149355593,3472,-2,9,51393
1366654950,5804,33.5499992370605500,23.2010002136230470,36.3532981872558600,250.3735961914062500,-15.2839202880859380,23.1962604522705080,27.8528404235839840,124,140,104,89,61,11058,2147316854,2147899035,2147795492,2147529718,2157197449,2158658861,2159873755,2149606902,50,-1,8,33528